SCP
0 0 0 0 0 0 0 0 0 0 0 0 0 0 0 0 0 0 0 0 0 0
0 0 0 0 0 0 0 0 0 0 0 0 0 0 0 0 0 0 0 0 0 0
0 0 0 0 0 0 0 0 0 0 0 0 0 0 0 0 0 0 0 0 0 0
0 0 0 0 0 0 0 0 0 0 0 0 0 0 0 0 0 0 0 0 0 0
0 0 0 0 0 0 0 0 0 0 0 0 0 0 0 0 0 0 0 0 0 0
0 0 0 0 0 0 0 0 0 0 0 0 0 0 0 0 0 0 0 0 0 0
0 0 0 0 0 0 0 0 0 0 0 0 0 0 0 0 0 0 0 0 0 0
0 0 0 0 0 0 0 0 0 0 0 0 0 0 0 0 0 0 0 0 0 0
0 0 0 0 0 0 0 0 0 0 0 0 0 0 0 0 0 0 0 0 0 0
0 0 0 0 0 0 0 0 0 0 0 0 0 0 0 0 0 0 0 0 0 0
0 0 0 0 0 0 0 0 0 0 0 0 0 0 0 0 0 0 0 0 0 0
0 0 0 0 0 0 0 0 0 0 0 0 0 0 0 0 0 0 0 0 0 0
0 0 0 0 0 0 0 0 0 0 0 0 0 0 0 0 0 0 0 0 0 0
0 0 0 0 0 0 0 0 0 0 0 0 0 0 0 0 0 0 0 0 0 0
Wind_Speed_500mb
43 49 55 55 54 55 54 50 51 48 50 47 44 46 50 49 47 42 38 35 28 32
39 39 40 44 49 46 45 47 44 42 42 44 44 40 47 40 37 36 30 30 33 34
36 35 32 33 37 39 39 40 42 43 37 29 23 27 24 21 20 21 22 21 27 30
31 31 32 33 39 41 41 39 37 31 25 20 18 17 17 17 19 23 26 29 30 33
31 32 33 34 39 37 36 33 29 27 25 24 23 23 22 22 21 23 24 24 26 27
36 37 35 37 38 39 37 35 32 30 27 22 18 16 17 18 19 18 18 18 20 23
41 41 40 39 38 36 34 32 28 24 21 19 17 16 15 14 13 13 13 15 19 23
42 41 41 40 37 35 31 28 26 24 21 19 18 14 12 13 14 15 15 16 19 22
47 46 44 41 37 33 30 29 28 25 20 18 17 15 17 18 16 14 15 15 16 19
50 47 44 40 38 36 33 29 25 22 22 21 16 18 20 17 14 14 13 13 14 18
54 51 49 46 42 39 35 30 26 22 18 17 22 25 18 18 16 14 14 15 19 24
59 56 52 48 44 41 38 34 29 26 23 22 20 16 18 16 15 15 18 21 24 27
57 53 50 48 45 41 36 30 25 25 24 21 19 18 21 16 17 18 19 23 26 30
58 54 50 45 40 34 30 27 26 24 22 19 19 22 21 20 17 19 21 23 26 29
Wind_Direction_500mb
250 247 245 242 237 234 238 243 243 243 259 263 271 264 264 258 265 258 262 262 249 254
250 248 246 242 237 234 237 241 242 255 255 256 246 259 267 259 254 263 269 275 278 273
238 234 227 233 232 232 237 247 247 252 240 244 250 257 267 263 267 269 273 279 285 282
230 224 222 222 232 237 237 234 232 235 237 232 227 231 237 249 260 267 269 271 274 277
225 220 216 215 223 222 221 220 214 206 206 213 221 230 240 249 256 264 270 274 275 280
221 216 215 214 209 203 199 197 201 207 214 221 231 244 254 262 266 270 275 283 289 294
217 211 205 201 197 196 199 205 211 218 223 228 233 239 245 253 261 272 283 293 294 294
211 206 203 202 202 205 208 213 221 228 227 229 237 244 255 267 273 275 280 284 291 299
210 207 206 207 208 212 216 219 220 224 227 237 241 247 259 266 269 277 284 292 304 310
213 213 212 211 213 213 211 213 216 226 238 243 254 277 278 280 288 296 301 307 310 311
214 212 211 210 209 207 204 204 210 221 234 253 272 276 275 281 289 296 307 316 319 320
214 212 210 208 206 205 206 212 222 234 236 237 253 257 266 279 291 298 310 318 320 321
214 213 211 209 208 209 214 218 215 218 222 237 249 265 275 278 286 296 305 309 310 315
211 210 209 208 209 210 208 209 215 224 231 233 243 254 265 278 284 294 306 310 311 314
Wind_Speed_850mb
43 49 55 55 54 55 54 50 51 48 50 47 44 46 50 49 47 42 38 35 28 32
39 39 40 44 49 46 45 47 44 42 42 44 44 40 47 40 37 36 30 30 33 34
36 35 32 33 37 39 39 40 42 43 37 29 23 27 24 21 20 21 22 21 27 30
31 31 32 33 39 41 41 39 37 31 25 20 18 17 17 17 19 23 26 29 30 33
31 32 33 34 39 37 36 33 29 27 25 24 23 23 22 22 21 23 24 24 26 27
36 37 35 37 38 39 37 35 32 30 27 22 18 16 17 18 19 18 18 18 20 23
41 41 40 39 38 36 34 32 28 24 21 19 17 16 15 14 13 13 13 15 19 23
42 41 41 40 37 35 31 28 26 24 21 19 18 14 12 13 14 15 15 16 19 22
47 46 44 41 37 33 30 29 28 25 20 18 17 15 17 18 16 14 15 15 16 19
50 47 44 40 38 36 33 29 25 22 22 21 16 18 20 17 14 14 13 13 14 18
54 51 49 46 42 39 35 30 26 22 18 17 22 25 18 18 16 14 14 15 19 24
59 56 52 48 44 41 38 34 29 26 23 22 20 16 18 16 15 15 18 21 24 27
57 53 50 48 45 41 36 30 25 25 24 21 19 18 21 16 17 18 19 23 26 30
58 54 50 45 40 34 30 27 26 24 22 19 19 22 21 20 17 19 21 23 26 29
Wind_Direction_850mb
250 247 245 242 237 234 238 243 243 243 259 263 271 264 264 258 265 258 262 262 249 254
250 248 246 242 237 234 237 241 242 255 255 256 246 259 267 259 254 263 269 275 278 273
238 234 227 233 232 232 237 247 247 252 240 244 250 257 267 263 267 269 273 279 285 282
230 224 222 222 232 237 237 234 232 235 237 232 227 231 237 249 260 267 269 271 274 277
225 220 216 215 223 222 221 220 214 206 206 213 221 230 240 249 256 264 270 274 275 280
221 216 215 214 209 203 199 197 201 207 214 221 231 244 254 262 266 270 275 283 289 294
217 211 205 201 197 196 199 205 211 218 223 228 233 239 245 253 261 272 283 293 294 294
211 206 203 202 202 205 208 213 221 228 227 229 237 244 255 267 273 275 280 284 291 299
210 207 206 207 208 212 216 219 220 224 227 237 241 247 259 266 269 277 284 292 304 310
213 213 212 211 213 213 211 213 216 226 238 243 254 277 278 280 288 296 301 307 310 311
214 212 211 210 209 207 204 204 210 221 234 253 272 276 275 281 289 296 307 316 319 320
214 212 210 208 206 205 206 212 222 234 236 237 253 257 266 279 291 298 310 318 320 321
214 213 211 209 208 209 214 218 215 218 222 237 249 265 275 278 286 296 305 309 310 315
211 210 209 208 209 210 208 209 215 224 231 233 243 254 265 278 284 294 306 310 311 314